Regional Weather Roundup
Issued by NWS

Home | Current Version | Previous Version | Graphics & Text | Print | Product List | Glossary On
Versions: 1 2 3 4 5 6 7 8 9 10 11 12 13 14 15 16 17 18 19 20 21 22 23 24 25 26 27 28 29 30 31 32 33 34 35 36 37 38 39 40 41 42 43 44 45 46 47 48 49 50
000
ASUS44 KMEG 031900
RWRTN
TENNESSEE HOURLY STATE WEATHER ROUNDUP
NATIONAL WEATHER SERVICE MEMPHIS TN
200 PM CDT THU SEP 03 2015

TNZ002-004-019-021-049-052-054-088>092-032000-
WEST TENNESSEE

CITY           SKY/WX    TMP DP  RH WIND       PRES   REMARKS
MEMPHIS INTL   PTSUNNY   92  69  47 S5        29.99F HX  97
NWS MEMPHIS      N/A     91 N/A N/A MISG        N/A
JACKSON        PTSUNNY   91  70  49 CALM      29.98F HX  96
DYERSBURG      SUNNY     90  72  55 W3        29.99F HX  96
UNION CITY     MOSUNNY   91  70  49 NE8       29.97F HX  97
PARIS          MOSUNNY   90  70  51 NE5       29.99F HX  95
LEXINGTON      SUNNY     91  70  49 VRB5      29.97F HX  97
$$

TNZ008-025-027-028-033-062-065-066-032000-
NORTH MIDDLE TENNESSEE

CITY           SKY/WX    TMP DP  RH WIND       PRES   REMARKS
NASHVILLE      MOSUNNY   92  61  35 VRB6      29.99F HX  92
CLARKSVILLE    PTSUNNY   92  63  38 CALM      29.98F HX  93
COOKEVILLE     SUNNY     90  70  51 NE5       30.01F HX  95
CROSSVILLE     PTSUNNY   85  63  47 NE6       30.07F
$$

TNZ061-075-076-078-094-096-097-032000-
SOUTH MIDDLE TENNESSEE

CITY           SKY/WX    TMP DP  RH WIND       PRES   REMARKS
FAYETTEVILLE   MOSUNNY   86  66  51 CALM      30.00F
TULLAHOMA      SUNNY     88  66  48 N6        30.02F HX  90
WINCHESTER     SUNNY     90  66  45 VRB6      30.00F HX  92
MCMINNVILLE    SUNNY     88  70  55 CALM      30.01F HX  92
COLUMBIA       SUNNY     91  72  52 E6        29.98F HX  98
SHELBYVILLE    SUNNY     91  70  49 CALM      30.00F HX  97
$$

TNZ017-018-042-046-047-032000-
NORTHEAST TENNESSEE

CITY           SKY/WX    TMP DP  RH WIND       PRES   REMARKS
TRI CITIES     MOSUNNY   87  65  47 VRB5      30.03F
ELIZABETHTON   PTCLDY    82  64  54 CALM      30.03S
$$

TNZ012-013-036-069-073-074-032000-
CENTRAL EAST TENNESSEE

CITY           SKY/WX    TMP DP  RH WIND       PRES   REMARKS
KNOXVILLE      MOSUNNY   89  62  40 E10G17    29.99F
OAK RIDGE      SUNNY     90  64  42 VRB3      30.01F HX  91
GATLINBURG       N/A     90  61  37 NE7       29.99F
$$

TNZ083-085-099-032000-
SOUTHEAST TENNESSEE

CITY           SKY/WX    TMP DP  RH WIND       PRES   REMARKS
CHATTANOOGA    MOSUNNY   90  67  46 N10       29.98F HX  93
$$

SKY/WX REPORTED AS FAIR MEANS FEW OR NO CLOUDS BELOW
12 THOUSAND FEET.




USA.gov is the U.S. government's official web portal to all federal, state and local government web resources and services.